Location: Unspecified
(0.0000°N, 0.0000°E)
Time: 17:59:48
(UTC+01:00)

CZ-4B DEB - Visible Passes

Search period start: 30 January 2015 00:00
Search period end: 09 February 2015 00:00
Orbit: 502 x 514 km, 97.5° (Epoch: 29 January)

Date Brightness Start Highest point End Pass type
(mag) Time Alt. Az. Time Alt. Az. Time Alt. Az.
31 Jan 6.2 20:29:02 10° SW 20:31:43 18° W 20:34:14 10° WNW visible
01 Feb 5.1 20:10:56 10° SSW 20:14:21 33° W 20:17:44 10° NW visible
02 Feb 3.6 19:53:15 10° S 19:56:59 68° W 20:00:41 10° NNW visible
03 Feb 3.2 19:35:54 10° SSE 19:39:35 59° E 19:43:15 10° N visible
05 Feb 6.5 20:36:13 10° SW 20:38:23 14° W 20:40:21 10° WNW visible
06 Feb 5.6 20:17:36 10° SSW 20:20:49 26° W 20:23:56 10° NW visible
07 Feb 4.1 19:59:35 10° S 20:03:14 52° W 20:06:51 10° NNW visible
08 Feb 3.1 19:41:55 10° SSE 19:45:38 75° E 19:49:20 10° N visible
